Blue Canyon, CA

9:54 AM PDT on June 26, 2017 (GMT -0700)
Blue Canyon-Nyack

Weather History for KBLU - February, 2013

Change the Weather History Date:

Thursday, February 7, 2013

  Actual Average Record
Temperature  
Mean Temperature 27 °F -  
Max Temperature 30 °F 46 °F 65 °F (1954)
Min Temperature 24 °F 32 °F 14 °F (1949)
Degree Days  
Heating Degree Days 38    
Moisture  
Dew Point 27 °F    
Average Humidity 97    
Maximum Humidity 100    
Minimum Humidity 85    
Precipitation  
Precipitation 0.19 in - - ()
Sea Level Pressure  
Sea Level Pressure 29.99 in    
Wind  
Wind Speed 8 mph (South)    
Max Wind Speed 15 mph    
Max Gust Speed 21 mph    
Visibility 4 miles    
Events Fog , Rain , Snow    
Averages and records for this station are not official NWS values.
T = Trace of Precipitation, MM = Missing Value Source: NWS Daily Summary

Daily Weather History Graph

Daily Weather History Graph

Search for Another Location

Airport or City:

Trip Planner

Search our weather history database for the weather conditions in past years. The results will help you decide how hot, cold, wet, or windy it might be!

Date:

Astronomy

Feb. 07, 2013 Rise Set
Actual Time 7:03 AM PST 5:31 PM PST
Civil Twilight 6:35 AM PST 5:58 PM PST
Nautical Twilight 6:03 AM PST 6:30 PM PST
Astronomical Twilight 5:32 AM PST 7:01 PM PST
Moon 4:46 AM PST (2/7) 3:01 PM PST (2/7)
Length of Visible Light 11h 23m
Length of Day
10h 27m
Waning Crescent, 8% of the Moon is Illuminated
Feb 7
Waning Crescent
Feb 9
New
Feb 17
First Quarter
Feb 25
Full
Mar 4
Last Quarter

Hourly Weather History & Observations

Time (PST) Temp. Windchill Dew Point Humidity Pressure Visibility Wind Dir Wind Speed Gust Speed Precip Events Conditions
12:52 AM 30.9 °F 25.2 °F 28.0 °F 89% 30.05 in 10.0 mi SE 5.8 mph - N/A   Clear
1:49 AM 28.4 °F 23.3 °F 26.6 °F 93% 30.06 in 2.0 mi SE 4.6 mph - N/A   Partly Cloudy
1:52 AM 28.9 °F 23.9 °F 28.0 °F 96% 30.05 in 1.0 mi ESE 4.6 mph - N/A   Mist
2:04 AM 28.4 °F 23.3 °F 28.4 °F 100% 30.05 in 2.0 mi SE 4.6 mph - N/A   Mostly Cloudy
2:18 AM 28.4 °F 21.2 °F 28.4 °F 100% 30.05 in 5.0 mi SE 6.9 mph - N/A   Mostly Cloudy
2:42 AM 28.4 °F 20.4 °F 26.6 °F 93% 30.05 in 1.8 mi South 8.1 mph - N/A   Scattered Clouds
2:45 AM 28.4 °F 21.2 °F 28.4 °F 100% 30.05 in 0.2 mi South 6.9 mph - N/A Fog Light Freezing Fog
2:50 AM 28.4 °F 22.2 °F 28.4 °F 100% 30.05 in 0.2 mi South 5.8 mph - N/A Fog Light Freezing Fog
2:52 AM 28.9 °F 21.1 °F 28.0 °F 96% 30.04 in 0.2 mi South 8.1 mph - N/A Fog Light Freezing Fog
3:52 AM 28.9 °F 17.7 °F 28.0 °F 96% 30.04 in 0.2 mi South 15.0 mph - N/A Fog Light Freezing Fog
4:52 AM 30.0 °F 22.4 °F 28.9 °F 96% 30.05 in 0.2 mi SSE 8.1 mph - 0.00 in Fog , Rain Light Freezing Rain
5:11 AM 30.2 °F 21.9 °F 28.4 °F 93% 30.04 in 0.2 mi SSE 9.2 mph - 0.00 in Fog Light Freezing Fog
5:25 AM 28.4 °F 19.1 °F 28.4 °F 100% 30.04 in 0.8 mi SSE 10.4 mph 19.6 mph 0.00 in   Mist
5:30 AM 28.4 °F 21.2 °F 28.4 °F 100% 30.04 in 1.0 mi SSE 6.9 mph 16.1 mph 0.00 in   Mist
5:35 AM 28.4 °F 22.2 °F 28.4 °F 100% 30.03 in 2.0 mi SE 5.8 mph - 0.00 in   Overcast
5:43 AM 28.4 °F 19.7 °F 28.4 °F 100% 30.03 in 4.0 mi SSE 9.2 mph - 0.00 in   Overcast
5:52 AM 28.9 °F 19.8 °F 28.0 °F 96% 30.06 in 6.0 mi SSE 10.4 mph - 0.00 in   Overcast
6:23 AM 28.4 °F 20.4 °F 28.4 °F 100% 30.04 in 1.8 mi South 8.1 mph - N/A   Overcast
6:31 AM 28.4 °F 19.7 °F 28.4 °F 100% 30.04 in 1.0 mi South 9.2 mph - N/A   Overcast
6:44 AM 28.4 °F 20.4 °F 28.4 °F 100% 30.04 in 0.5 mi SSE 8.1 mph - N/A Fog Light Freezing Fog
6:52 AM 28.9 °F 21.9 °F 28.9 °F 100% 30.07 in 0.8 mi SSE 6.9 mph - N/A   Mist
7:03 AM 28.4 °F 19.1 °F 28.4 °F 100% 30.04 in 1.5 mi SSE 10.4 mph 16.1 mph N/A   Overcast
7:08 AM 28.4 °F 20.4 °F 28.4 °F 100% 30.03 in 3.0 mi SSE 8.1 mph - N/A   Overcast
7:45 AM 28.4 °F 22.2 °F 28.4 °F 100% 30.03 in 6.0 mi SE 5.8 mph - N/A   Overcast
7:52 AM 28.9 °F 20.4 °F 28.0 °F 96% 30.07 in 7.0 mi SE 9.2 mph - N/A   Overcast
8:03 AM 28.4 °F 23.3 °F 28.4 °F 100% 30.03 in 6.0 mi Variable 4.6 mph - N/A   Overcast
8:19 AM 28.4 °F 23.3 °F 28.4 °F 100% 30.03 in 7.0 mi SE 4.6 mph - N/A   Overcast
8:30 AM 28.4 °F 21.2 °F 26.6 °F 93% 30.03 in 8.0 mi SE 6.9 mph - N/A   Overcast
8:52 AM 28.9 °F 20.4 °F 28.0 °F 96% 30.05 in 10.0 mi SSE 9.2 mph - N/A   Overcast
9:01 AM 28.4 °F 19.7 °F 26.6 °F 93% 30.03 in 10.0 mi SSE 9.2 mph - N/A   Overcast
9:16 AM 30.2 °F 21.3 °F 28.4 °F 93% 30.03 in 10.0 mi SSE 10.4 mph - N/A   Overcast
9:52 AM 30.0 °F 22.4 °F 28.0 °F 92% 30.06 in 10.0 mi SSE 8.1 mph - N/A   Overcast
10:14 AM 30.2 °F 20.2 °F 28.4 °F 93% 30.02 in 3.0 mi South 12.7 mph - 0.00 in Snow Light Snow
10:16 AM 30.2 °F 20.8 °F 28.4 °F 93% 30.02 in 2.5 mi South 11.5 mph - 0.00 in Snow Light Snow
10:22 AM 30.2 °F 20.2 °F 28.4 °F 93% 30.02 in 1.2 mi South 12.7 mph - 0.00 in Snow Light Snow
10:25 AM 30.2 °F 20.8 °F 28.4 °F 93% 30.02 in 1.0 mi SSE 11.5 mph - 0.00 in Snow Light Snow
10:34 AM 30.2 °F 20.2 °F 28.4 °F 93% 30.02 in 0.5 mi SSE 12.7 mph - 0.00 in Fog , Snow Snow
10:42 AM 30.2 °F 20.2 °F 28.4 °F 93% 30.02 in 0.5 mi South 12.7 mph - 0.00 in Fog , Snow Light Snow
10:52 AM 30.0 °F 20.5 °F 28.9 °F 96% 30.06 in 0.2 mi SSE 11.5 mph - 0.00 in Fog , Snow Light Snow
11:12 AM 30.2 °F 19.8 °F 28.4 °F 93% 30.01 in 0.2 mi South 13.8 mph 19.6 mph 0.01 in Fog , Snow Light Snow
11:52 AM 28.9 °F 19.2 °F 28.9 °F 100% 30.05 in 0.2 mi South 11.5 mph - 0.01 in Fog , Snow Snow
11:59 AM 28.4 °F 18.0 °F 28.4 °F 100% 29.99 in 0.2 mi South 12.7 mph - 0.02 in Fog , Snow Snow
12:15 PM 28.4 °F 19.1 °F 28.4 °F 100% 29.98 in 0.2 mi South 10.4 mph - 0.03 in Fog , Snow Light Snow
12:52 PM 28.9 °F 18.2 °F 28.9 °F 100% 30.02 in 0.2 mi South 13.8 mph 17.3 mph 0.04 in Fog , Snow Light Snow
1:31 PM 28.4 °F 17.5 °F 28.4 °F 100% 29.95 in 0.2 mi South 13.8 mph 19.6 mph 0.00 in Fog , Snow Light Snow
1:52 PM 28.9 °F 19.2 °F 28.9 °F 100% 30.02 in 0.2 mi South 11.5 mph - 0.01 in Fog , Snow Snow
2:32 PM 28.4 °F 21.2 °F 28.4 °F 100% 29.96 in 1.0 mi SSW 6.9 mph 16.1 mph 0.04 in Snow Light Snow
2:37 PM 28.4 °F 19.7 °F 26.6 °F 93% 29.96 in 2.0 mi SSW 9.2 mph 17.3 mph 0.04 in Snow Light Snow
2:47 PM 28.4 °F 19.7 °F 26.6 °F 93% 29.96 in 1.2 mi SSW 9.2 mph - 0.04 in Snow Light Snow
2:52 PM 28.0 °F 21.7 °F 27.0 °F 96% 30.02 in 0.8 mi SW 5.8 mph - 0.04 in Snow Light Snow
3:03 PM 28.4 °F 19.7 °F 26.6 °F 93% 29.96 in 2.0 mi SSW 9.2 mph 20.7 mph 0.01 in Snow Light Snow
3:10 PM 28.4 °F 23.3 °F 26.6 °F 93% 29.96 in 9.0 mi SSW 4.6 mph - 0.01 in   Overcast
3:19 PM 28.4 °F 19.1 °F 26.6 °F 93% 29.96 in 1.8 mi SW 10.4 mph - 0.01 in Snow Light Snow
3:28 PM 28.4 °F 19.7 °F 26.6 °F 93% 29.96 in 3.0 mi SW 9.2 mph - 0.01 in Snow Light Snow
3:48 PM 26.6 °F 19.1 °F 24.8 °F 93% 29.96 in 10.0 mi SSW 6.9 mph 17.3 mph 0.01 in   Mostly Cloudy
3:52 PM 28.0 °F 20.8 °F 24.1 °F 85% 30.02 in 10.0 mi SSW 6.9 mph - 0.01 in   Mostly Cloudy
4:10 PM 28.4 °F 23.3 °F 26.6 °F 93% 29.95 in 10.0 mi South 4.6 mph - N/A   Mostly Cloudy
4:52 PM 27.0 °F 20.5 °F 26.1 °F 96% 30.01 in 10.0 mi SSE 5.8 mph - N/A   Mostly Cloudy
5:01 PM 26.6 °F - 26.6 °F 100% 29.94 in 10.0 mi Calm Calm - N/A   Mostly Cloudy
5:28 PM 28.4 °F 24.6 °F 26.6 °F 93% 29.93 in 10.0 mi SE 3.5 mph - N/A   Overcast
5:52 PM 27.0 °F 21.6 °F 26.1 °F 96% 30.00 in 9.0 mi SSE 4.6 mph - 0.00 in Snow Light Snow
6:17 PM 26.6 °F - 26.6 °F 100% 29.93 in 4.0 mi Calm Calm - 0.00 in Snow Light Snow
6:23 PM 26.6 °F 20.0 °F 26.6 °F 100% 29.93 in 1.5 mi SSE 5.8 mph - 0.00 in Snow Light Snow
6:25 PM 26.6 °F 20.0 °F 26.6 °F 100% 29.93 in 0.8 mi SSE 5.8 mph - 0.01 in Snow Light Snow
6:32 PM 26.6 °F 15.7 °F 26.6 °F 100% 29.93 in 0.2 mi SSE 12.7 mph 17.3 mph 0.03 in Fog , Snow Light Snow
6:52 PM 27.0 °F 18.0 °F 27.0 °F 100% 30.00 in 0.2 mi South 9.2 mph - 0.04 in Fog Light Freezing Fog
7:21 PM 26.6 °F 18.2 °F 26.6 °F 100% 29.92 in 1.0 mi SSW 8.1 mph - N/A   Mist
7:29 PM 26.6 °F 19.1 °F 26.6 °F 100% 29.92 in 2.0 mi South 6.9 mph - N/A   Overcast
7:31 PM 26.6 °F 18.2 °F 26.6 °F 100% 29.92 in 0.8 mi South 8.1 mph - N/A   Mist
7:37 PM 26.6 °F 18.2 °F 26.6 °F 100% 29.92 in 0.2 mi South 8.1 mph - N/A Fog Light Freezing Fog
7:52 PM 27.0 °F 20.5 °F 26.1 °F 96% 29.99 in 0.2 mi Variable 5.8 mph - N/A Fog Light Freezing Fog
7:59 PM 26.6 °F 17.5 °F 26.6 °F 100% 29.92 in 0.2 mi South 9.2 mph - 0.00 in Fog Light Freezing Fog
8:19 PM 26.6 °F 17.5 °F 26.6 °F 100% 29.91 in 0.8 mi South 9.2 mph - 0.00 in   Mist
8:33 PM 26.6 °F 20.0 °F 26.6 °F 100% 29.91 in 0.2 mi South 5.8 mph - 0.00 in Fog , Snow Light Snow
8:47 PM 26.6 °F 21.2 °F 26.6 °F 100% 29.90 in 1.0 mi Variable 4.6 mph - 0.03 in Snow Light Snow
8:52 PM 27.0 °F 19.5 °F 26.1 °F 96% 29.98 in 0.8 mi SSW 6.9 mph - 0.03 in Snow Light Snow
8:58 PM 26.6 °F 18.2 °F 26.6 °F 100% 29.90 in 0.2 mi South 8.1 mph - 0.01 in Fog , Snow Light Snow
9:41 PM 26.6 °F 19.1 °F 26.6 °F 100% 29.90 in 0.8 mi South 6.9 mph - 0.01 in   Mist
9:48 PM 26.6 °F 18.2 °F 24.8 °F 93% 29.89 in 2.0 mi South 8.1 mph - 0.01 in   Overcast
9:52 PM 26.1 °F 17.6 °F 25.0 °F 96% 29.97 in 4.0 mi SSW 8.1 mph - 0.01 in   Overcast
9:59 PM 26.6 °F 17.5 °F 26.6 °F 100% 29.89 in 1.8 mi South 9.2 mph - N/A   Overcast
10:07 PM 26.6 °F 17.5 °F 24.8 °F 93% 29.89 in 4.0 mi South 9.2 mph - N/A   Overcast
10:23 PM 26.6 °F 19.1 °F 24.8 °F 93% 29.89 in 10.0 mi South 6.9 mph - N/A   Overcast
10:48 PM 24.8 °F 19.1 °F 24.8 °F 100% 29.89 in 10.0 mi South 4.6 mph - N/A   Overcast
10:52 PM 25.0 °F 18.1 °F 25.0 °F 100% 29.96 in 10.0 mi Variable 5.8 mph - N/A   Overcast
11:28 PM 24.8 °F - 23.0 °F 93% 29.88 in 10.0 mi Calm Calm - N/A   Overcast
11:38 PM 24.8 °F - 23.0 °F 93% 29.88 in 10.0 mi Calm Calm - N/A   Overcast
11:52 PM 24.1 °F - 21.9 °F 91% 29.96 in 10.0 mi Calm Calm - N/A   Overcast